Погода в Исландии

США     40°48′34″N   73°10′56″W
темп.,
°C
ветер,
м/с
пор.,
м/с
влажн.,
%
обл.,
%
осадки,
мм/ч
давл.,
гПа
погр.,
м
17 октября, вс
вс1723:00+16сз4888100 2.4 1006675
02:00+14зсз6107776 3.7 1007844
05:00+13зсз59700 0.0 1007624
08:00+13зсз58710 0.0 1009591
11:00+16зсз57545 0.0 10091138
14:00+18зсз5740100 0.0 10082395
17:00+17зсз574431 0.1 10081930
20:00+14сз610545 0.1 10101260
18 октября, пн
пн1823:00+13зсз611601 0.0 10111476
02:00+12зсз596225 0.0 10101058
05:00+12зсз49655 0.0 1010830
08:00+12зсз49655 0.0 1011954
11:00+14зсз585233 0.0 10101539
14:00+14сз695157 0.1 10101533
17:00+14сз7114970 0.0 10111973
20:00+11сз610555 0.1 10131409
19 октября, вт
вт1923:00+10сз511535 0.0 10151505
02:00+10сз5106124 0.0 10151424
05:00+10сз69595 0.0 10161093
08:00+9зсз59610 0.0 1017752
11:00+13зсз58451 0.0 1017956
14:00+18зсз610325 0.0 10141432
17:00+19зсз513405 0.0 10131634
20:00+18з715574 0.0 10141357
20 октября, ср
ср2023:00+17з6136114 0.0 1014972
02:00+16з5126517 0.0 1014855
05:00+15зсз512652 0.0 1015755
08:00+15зсз511695 0.0 1016615
11:00+19зсз6105594 0.0 1017818
14:00+22зсз58430 0.0 10161064
17:00+22зсз47440 0.0 10151213
20:00+20з36535 0.0 1017194
21 октября, чт
чт2123:00+18з38625 0.0 1017307
02:00+17з36640 0.0 1017193
05:00+16зюз35670 0.0 1017170
08:00+16зюз49670 0.0 1017369
11:00+20юз611470 0.0 1017690
14:00+22юз58455 0.0 1015869
17:00+20ююз6106636 0.0 1013643
20:00+19ююз51074100 0.0 1013470